|
|
Hoffmeister asteroid family
(Preview)
Title: Asteroid secular dynamics: Ceres' fingerprint identified Author: Bojan Novakovic, Clara Maurel, Georgios Tsirvoulis, Zoran Knezevic Here we report on the significant role of a so far overlooked dynamical aspect, namely a secular resonance between the dwarf planet Ceres and other aste...
|
Blobrana
|
1
|
|
|
|
|
Asteroid 2015 TB145
(Preview)
2015 TB145 is a near-Earth asteroid roughly 280620 meters (9002,000 feet) in diameter. It will safely pass 1.27 lunar distances from Earth on 31 October 2015 at 17:01 UTC. Read more Spoiler This 400m wide asteroid will harml...
|
Blobrana
|
2
|
|
|
|
|
Asteroid 2015 EO61
(Preview)
Orbital elements:
2015 EO61 PHA, Earth MOID = 0.0092 AU
Epoch 2015 June 27.0 TT = JDT 2457200.5 MPC
M 9.84766 (2000.0) P Q
n 0.57278112 Peri. 260.71800 +0.56720180 +0.82324057
a 1.4359641 Node 43.86494 -0.74161806 +0.52300874
e 0.7235718 Incl. 1.95190 -0.35816864 +0.22076418
P 1.72 H 21....
|
Blobrana
|
1
|
|
|
|
|
Asteroid 2015 BN509
(Preview)
Orbital elements:
2015 BN509 PHA, Earth MOID = 0.0247 AU
Epoch 2014 Dec. 9.0 TT = JDT 2457000.5 MPC
M 252.80291 (2000.0) P Q
n 0.97321839 Peri. 142.99230 -0.11511861 +0.99134267
a 1.0084689 Node 120.31694 -0.92800091 -0.08465154
e 0.5696366 Incl. 4.19490 -0.35434730 -0.10036845
P 1.01 H...
|
Blobrana
|
2
|
|
|
|
|
Asteroid 2015 YY9
(Preview)
Orbital elements:
2015 YY9 PHA, Earth MOID = 0.0018 AU
Epoch 2016 Jan. 13.0 TT = JDT 2457400.5 MPC
M 26.93000 (2000.0) P Q
n 0.38681232 Peri. 300.07122 +0.94115894 -0.30708129
a 1.8655312 Node 78.12114 +0.33780382 +0.84188358
e 0.5647067 Incl. 8.29270 +0.01041259 +0.44377146
P 2.55 H 21....
|
Blobrana
|
0
|
|
|
|
|
Asteroid 2015 YU7
(Preview)
Orbital elements:
2015 YU7 PHA, Earth MOID = 0.0058 AU
Epoch 2016 Jan. 13.0 TT = JDT 2457400.5 MPC
M 139.58356 (2000.0) P Q
n 1.32842805 Peri. 44.20631 +0.46969716 +0.87466370
a 0.8195536 Node 254.14766 -0.84058716 +0.40162097
e 0.4111362 Incl. 7.15296 -0.26981068 +0.27141115
P 0.74 H 21...
|
Blobrana
|
0
|
|
|
|
|
Asteroid (181) Eucharis
(Preview)
181 Eucharis is a large, slowly rotating main-belt asteroid that was discovered by French astronomer Pablo Cottenot on February 2, 1878, from Marseille Observatory Read more
|
Blobrana
|
1
|
|
|
|
|
Asteroid (60716) 2000 GD65
(Preview)
Title: A 2 km-size asteroid challenging the rubble-pile spin barrier - a case for cohesion Author: D. Polishook, N. Moskovitz, R. P. Binzel, B. Burt, F. E. DeMeo, M. L. Hinkle, M. Lockhart, M. Mommert, M. Person, A. Thirouin, C. A. Thomas, D. Trilling, M. Willman, O. Aharonson The rubble pile spin bar...
|
Blobrana
|
0
|
|
|
|
|
Asteroid 2015 YA1
(Preview)
Orbital elements:
2015 YA1 Earth MOID = 0.0017 AU
Epoch 2016 Jan. 13.0 TT = JDT 2457400.5 MPC
M 93.84157 (2000.0) P Q
n 0.88969598 Peri. 86.27219 +0.98528170 +0.12705465
a 1.0706355 Node 266.40370 -0.16206541 +0.90705755
e 0.1873856 Incl. 6.57945 +0.05435793 +0.40137727
P 1.11 H 24.5 G 0....
|
Blobrana
|
0
|
|
|
|
|
Asteroid 2015 YB
(Preview)
Orbital elements:
2015 YB Earth MOID = 0.0004 AU
Epoch 2016 Jan. 13.0 TT = JDT 2457400.5 MPC
M 352.31336 (2000.0) P Q
n 0.43044446 Peri. 62.76254 -0.85671006 -0.49608174
a 1.7372326 Node 87.19274 +0.40894458 -0.82015671
e 0.5421245 Incl. 8.12985 +0.31434408 -0.28503662
P 2.29 H 27.5 G 0.1...
|
Blobrana
|
1
|
|
|
|
|
Asteroid 2015 YJ
(Preview)
Orbital elements:
2015 YJ Earth MOID = 0.0002 AU
Epoch 2016 Jan. 13.0 TT = JDT 2457400.5 MPC
M 58.67807 (2000.0) P Q
n 0.69325855 Peri. 77.39524 +0.96049301 +0.27829586
a 1.2643653 Node 266.44621 -0.25616540 +0.88105079
e 0.5237110 Incl. 0.12304 -0.10877713 +0.38249304
P 1.42 H 28.0 G 0.1...
|
Blobrana
|
0
|
|
|
|
|
Asteroid 2015 XU378
(Preview)
Orbital elements:
2015 XU378 PHA, Earth MOID = 0.0311 AU
Epoch 2016 Jan. 13.0 TT = JDT 2457400.5 MPC
M 8.00622 (2000.0) P Q
n 0.35592476 Peri. 3.05507 -0.04401576 -0.91427774
a 1.9719561 Node 89.72648 +0.90784430 -0.20484873
e 0.4855286 Incl. 23.74671 +0.41699080 +0.34947563
P 2.77 H 21....
|
Blobrana
|
0
|
|
|
|
|
Asteroid 2015 XT378
(Preview)
Orbital elements:
2015 XT378 Earth MOID = 0.0006 AU
Epoch 2016 Jan. 13.0 TT = JDT 2457400.5 MPC
M 126.38862 (2000.0) P Q
n 1.08656889 Peri. 64.87010 +0.78818377 +0.60781419
a 0.9370538 Node 257.55142 -0.59426570 +0.71082550
e 0.2329337 Incl. 5.67630 -0.16004568 +0.35396189
P 0.91 H 27.9...
|
Blobrana
|
0
|
|
|
|
|
Asteroid 2015 KP18
(Preview)
Orbital elements:
2015 KP18 Earth MOID = 0.0008 AU
Epoch 2016 Jan. 13.0 TT = JDT 2457400.5 MPC
M 74.76302 (2000.0) P Q
n 0.46541177 Peri. 81.29629 +0.94520326 +0.32600441
a 1.6490904 Node 259.67582 -0.30615769 +0.86627423
e 0.5869688 Incl. 1.02863 -0.11339429 +0.37853676
P 2.12 H 23.1 G 0...
|
Blobrana
|
0
|
|
|
|
|
Asteroid 2015 XA352
(Preview)
Orbital elements:
2015 XA352 PHA, Earth MOID = 0.0073 AU
Epoch 2016 Jan. 13.0 TT = JDT 2457400.5 MPC
M 196.82345 (2000.0) P Q
n 0.68309265 Peri. 19.08366 -0.23307089 +0.96993497
a 1.2768787 Node 237.49450 -0.90266594 -0.24257089
e 0.2073583 Incl. 4.76322 -0.36176258 -0.01963477
P 1.44 H...
|
Blobrana
|
0
|
|
|